Regional Weather Roundup
Issued by NWS

Home | Current Version | Previous Version | Text Only | Print | Product List | Glossary On
Versions: 1 2 3 4 5 6 7 8 9 10 11 12 13 14 15 16 17 18 19 20 21 22 23 24 25 26 27 28 29 30 31 32 33 34 35 36 37 38 39 40 41 42 43 44 45 46 47 48 49 50
000
ASUS43 KTOP 290208
RWRKS

WEATHER ROUNDUP FOR KANSAS
NATIONAL WEATHER SERVICE GOODLAND KS
900 PM CDT SAT MAY 28 2016

NOTE:  "FAIR" INDICATES FEW OR NO CLOUDS BELOW 12,000 FEET WITH NO
SIGNIFICANT WEATHER AND/OR OBSTRUCTIONS TO VISIBILITY.

KSZ001>006-013>018-027>032-041>047-290300-
NORTHWEST KANSAS

CITY           SKY/WX    TMP DP  RH WIND       PRES   REMARKS
GOODLAND       CLEAR     67  47  48 SW6       30.02R
HAYS           CLEAR     70  54  56 S6        29.99R
HILL CITY      CLEAR     71  54  54 E3        29.98R
RUSSELL        CLEAR     69  61  75 S6        29.97R
$$

KSZ061>065-074>080-084>089-290300-
SOUTHWEST KANSAS

CITY           SKY/WX    TMP DP  RH WIND       PRES   REMARKS
DODGE CITY     CLEAR     69  54  58 E7        30.01R
ELKHART          N/A     73  45  36 NW2         N/A
GARDEN CITY    CLEAR     73  45  36 E5        30.01R
GREAT BEND     CLEAR     72  55  56 CALM      29.99R
LIBERAL        CLEAR     73  45  35 SE7       30.02R
PRATT          CLEAR     71  54  54 NE3       30.00R
$$

KSZ066>073-081>083-090>101-290300-
SOUTHEAST KANSAS

CITY           SKY/WX    TMP DP  RH WIND       PRES   REMARKS
CHANUTE        CLEAR     71  63  75 S5        29.97R
COFFEYVILLE    CLEAR     72  63  73 S3        29.97R
HUTCHINSON     CLEAR     71  61  70 NE3       29.98R
MEDICINE LODGE   N/A     77  50  38 SE3       29.98R
NEWTON         CLEAR     70  59  68 N3          N/A
PARSONS        CLEAR     68  63  84 CALM      29.98R
WICHITA INTL   CLEAR     76  57  51 NW3       29.97R
WICHITA JABRA  CLEAR     74  59  59 NW3       29.98R
WICHITA MCCONL CLEAR     76  55  47 CALM      29.98R
WINFIELD       CLEAR     73  60  63 SE5       29.98R
$$

KSZ007>012-019>026-033>040-048>060-102>105-290300-
NORTHEAST KANSAS

CITY           SKY/WX    TMP DP  RH WIND       PRES   REMARKS
CONCORDIA      CLEAR     66  57  72 SW8       29.96R
EMPORIA        CLEAR     70  61  73 SW3       29.97R
LAWRENCE       CLEAR     71  59  65 SW3       29.95R
MANHATTAN      CLEAR     69  58  67 SW5       29.95R
MARYSVILLE     CLEAR     68  59  73 SW5       29.94S
OLATHE IND     CLEAR     70  60  70 SW6       29.97R
OLATHE EXE     CLEAR     70  59  68 SW3       29.97R
SALINA         CLEAR     73  59  61 SW5       29.98R
TOPEKA BILLARD CLEAR     72  58  61 SW3       29.95R
TOPEKA FORBES  CLEAR     70  62  76 CALM      29.96R
$$




USA.gov is the U.S. government's official web portal to all federal, state and local government web resources and services.